TimeEST,TemperatureF,Dew PointF,Humidity,Sea Level PressureIn,VisibilityMPH,Wind Direction,Wind SpeedMPH,Gust SpeedMPH,PrecipitationIn,Events,Conditions,WindDirDegrees,DateUTC
12:15 AM,52.7,46.9,81,30.13,10.0,North,9.2,-,N/A,,Overcast,360,2012-11-20 05:15:00
12:35 AM,52.7,46.9,81,30.12,10.0,North,11.5,-,N/A,,Overcast,350,2012-11-20 05:35:00
12:55 AM,52.7,46.9,81,30.11,7.0,North,10.4,-,N/A,,Overcast,350,2012-11-20 05:55:00
1:15 AM,52.7,46.9,81,30.11,10.0,North,8.1,-,N/A,,Overcast,360,2012-11-20 06:15:00
1:35 AM,52.7,46.9,81,30.11,10.0,North,10.4,-,N/A,,Overcast,350,2012-11-20 06:35:00
1:55 AM,52.7,46.9,81,30.11,10.0,NNW,11.5,-,N/A,,Overcast,340,2012-11-20 06:55:00
2:15 AM,52.7,46.9,81,30.11,10.0,North,10.4,18.4,N/A,,Overcast,350,2012-11-20 07:15:00
2:35 AM,52.7,46.9,81,30.11,10.0,North,8.1,-,N/A,,Overcast,360,2012-11-20 07:35:00
2:55 AM,52.7,46.9,81,30.11,10.0,North,9.2,-,N/A,,Overcast,350,2012-11-20 07:55:00
3:15 AM,52.7,46.9,81,30.10,10.0,North,9.2,-,N/A,,Overcast,360,2012-11-20 08:15:00
3:35 AM,52.3,46.6,81,30.11,10.0,North,10.4,-,N/A,,Overcast,350,2012-11-20 08:35:00
7:15 AM,52.5,46.8,81,30.12,10.0,North,8.1,-,N/A,,Overcast,350,2012-11-20 12:15:00
7:35 AM,52.7,46.9,81,30.12,10.0,North,8.1,-,N/A,,Overcast,350,2012-11-20 12:35:00
7:55 AM,52.7,46.9,81,30.12,10.0,North,8.1,16.1,N/A,,Overcast,10,2012-11-20 12:55:00
8:15 AM,52.7,46.9,81,30.13,10.0,North,8.1,-,N/A,,Overcast,10,2012-11-20 13:15:00
8:35 AM,52.7,46.9,81,30.14,10.0,North,9.2,-,N/A,,Overcast,10,2012-11-20 13:35:00
8:55 AM,52.7,46.9,81,30.13,10.0,NNE,10.4,-,N/A,,Overcast,20,2012-11-20 13:55:00
9:15 AM,52.7,46.9,81,30.13,10.0,NNE,9.2,-,N/A,,Overcast,30,2012-11-20 14:15:00
9:35 AM,52.7,46.9,81,30.13,10.0,NNE,9.2,-,N/A,,Overcast,20,2012-11-20 14:35:00
9:55 AM,52.7,46.9,81,30.12,10.0,NNE,8.1,11.5,N/A,,Overcast,20,2012-11-20 14:55:00
10:15 AM,53.6,47.3,79,30.12,10.0,NNE,10.4,-,N/A,,Overcast,20,2012-11-20 15:15:00
10:35 AM,54.5,48.2,79,30.11,10.0,North,10.4,-,N/A,,Overcast,10,2012-11-20 15:35:00
10:55 AM,54.9,48.4,79,30.11,10.0,North,10.4,-,N/A,,Overcast,360,2012-11-20 15:55:00
11:15 AM,55.0,48.6,79,30.11,10.0,NNW,8.1,-,N/A,,Overcast,340,2012-11-20 16:15:00
11:35 AM,54.7,48.4,79,30.11,10.0,North,6.9,-,N/A,,Overcast,350,2012-11-20 16:35:00
11:55 AM,54.0,47.7,79,30.11,10.0,North,6.9,-,N/A,,Overcast,360,2012-11-20 16:55:00
12:15 PM,54.1,47.8,79,30.10,10.0,North,4.6,-,N/A,,Overcast,360,2012-11-20 17:15:00
12:35 PM,55.4,48.4,77,30.10,10.0,North,4.6,-,N/A,,Overcast,10,2012-11-20 17:35:00
12:55 PM,55.6,48.4,77,30.08,10.0,NNE,4.6,-,N/A,,Overcast,20,2012-11-20 17:55:00
1:15 PM,58.1,50.5,76,30.08,10.0,North,6.9,-,N/A,,Overcast,350,2012-11-20 18:15:00
1:35 PM,58.1,50.5,76,30.07,10.0,NNE,4.6,-,N/A,,Overcast,20,2012-11-20 18:35:00
1:55 PM,58.1,50.5,76,30.06,10.0,North,3.5,-,N/A,,Overcast,360,2012-11-20 18:55:00
2:15 PM,58.1,50.2,75,30.07,10.0,North,5.8,-,N/A,,Mostly Cloudy,360,2012-11-20 19:15:00
2:35 PM,58.1,49.6,73,30.06,10.0,North,6.9,-,N/A,,Scattered Clouds,10,2012-11-20 19:35:00
2:55 PM,58.1,49.5,73,30.06,10.0,NNE,5.8,-,N/A,,Mostly Cloudy,20,2012-11-20 19:55:00
3:15 PM,58.1,49.6,73,30.05,10.0,NNE,6.9,-,N/A,,Mostly Cloudy,20,2012-11-20 20:15:00
3:35 PM,58.1,49.5,73,30.06,10.0,North,5.8,-,N/A,,Mostly Cloudy,360,2012-11-20 20:35:00
3:55 PM,58.1,49.3,72,30.05,10.0,North,5.8,-,N/A,,Mostly Cloudy,360,2012-11-20 20:55:00
4:15 PM,58.1,49.5,73,30.07,10.0,North,6.9,-,N/A,,Overcast,360,2012-11-20 21:15:00
4:35 PM,58.1,50.0,74,30.06,10.0,NNE,4.6,-,N/A,,Overcast,20,2012-11-20 21:35:00
4:55 PM,58.1,50.0,74,30.06,10.0,North,3.5,-,N/A,,Overcast,360,2012-11-20 21:55:00
5:15 PM,58.1,50.5,76,30.06,10.0,North,3.5,-,N/A,,Overcast,360,2012-11-20 22:15:00
5:35 PM,55.4,48.6,78,30.06,10.0,Calm,Calm,-,N/A,,Overcast,0,2012-11-20 22:35:00
5:55 PM,55.4,48.6,78,30.07,10.0,Calm,Calm,-,N/A,,Overcast,0,2012-11-20 22:55:00
6:15 PM,55.0,48.2,78,30.07,10.0,NE,3.5,-,N/A,,Mostly Cloudy,40,2012-11-20 23:15:00
6:35 PM,54.0,47.3,78,30.07,10.0,NE,4.6,-,N/A,,Scattered Clouds,40,2012-11-20 23:35:00
6:55 PM,52.7,46.4,79,30.07,10.0,Calm,Calm,-,N/A,,Scattered Clouds,0,2012-11-20 23:55:00
7:15 PM,52.7,46.8,80,30.07,10.0,NNE,3.5,-,N/A,,Clear,30,2012-11-21 00:15:00
7:35 PM,52.7,46.9,81,30.08,10.0,NNE,4.6,-,N/A,,Clear,20,2012-11-21 00:35:00
7:55 PM,52.7,46.9,81,30.09,10.0,North,4.6,-,N/A,,Mostly Cloudy,10,2012-11-21 00:55:00
8:15 PM,52.7,46.0,78,30.08,10.0,NNE,6.9,-,N/A,,Overcast,30,2012-11-21 01:15:00
8:35 PM,52.7,46.0,78,30.09,10.0,NNE,8.1,-,N/A,,Overcast,30,2012-11-21 01:35:00
8:55 PM,52.7,45.7,77,30.09,10.0,NNE,6.9,-,N/A,,Overcast,20,2012-11-21 01:55:00
9:15 PM,52.7,45.9,78,30.09,10.0,North,5.8,-,N/A,,Overcast,10,2012-11-21 02:15:00
9:35 PM,52.7,45.5,76,30.09,10.0,NNE,6.9,-,N/A,,Overcast,20,2012-11-21 02:35:00
9:55 PM,52.7,45.1,75,30.08,10.0,NNE,4.6,-,N/A,,Mostly Cloudy,30,2012-11-21 02:55:00
10:15 PM,50.2,43.2,77,30.08,10.0,NNE,5.8,-,N/A,,Scattered Clouds,30,2012-11-21 03:15:00
10:35 PM,49.6,43.2,78,30.08,10.0,North,4.6,-,N/A,,Clear,350,2012-11-21 03:35:00
10:55 PM,46.8,40.8,80,30.09,10.0,North,4.6,-,N/A,,Clear,360,2012-11-21 03:55:00
11:15 PM,46.2,40.6,81,30.08,10.0,North,6.9,-,N/A,,Clear,360,2012-11-21 04:15:00
11:35 PM,46.9,41.4,81,30.09,10.0,North,6.9,-,N/A,,Clear,360,2012-11-21 04:35:00
11:55 PM,46.8,41.0,80,30.08,10.0,North,6.9,-,N/A,,Clear,360,2012-11-21 04:55:00